Location: Freemans Gardens
(41.6414°N, 83.6077°W)
Time: 03:34:11
(UTC+00:00)

Cosmos 2263 Rocket - Pass Details

Date: 29 October 2020
Orbit: 822 x 850 km, 71.0° (Epoch: 26 November)

Event Time Altitude Azimuth Distance (km) Brightness Sun altitude
Rises 23:42:56 0° 348° (NNW) 3,420 5.4 -13.7°
Reaches altitude 10° 23:46:20 10° 8° (N) 2,483 4.5 -14.4°
Maximum altitude 23:49:58 17° 48° (NE) 2,026 3.7 -15.1°
Enters shadow 23:50:17 17° 52° (NE) 2,029 3.7 -15.1°
